Regional Weather Roundup
Issued by NWS

Home | Current Version | Previous Version | Text Only | Print | Product List | Glossary Off
Versions: 1 2 3 4 5 6 7 8 9 10 11 12 13 14 15 16 17 18 19 20 21 22 23 24 25 26 27 28 29 30 31 32 33 34 35 36 37 38 39 40 41 42 43 44 45 46 47 48 49 50

000
ASUS43 KLOT 280100
RWRIL

ILLINOIS REGIONAL WEATHER ROUNDUP
NATIONAL WEATHER SERVICE CHICAGO/ROMEOVILLE IL
800 PM CDT SUN JUL 27 2014

NOTE: "FAIR" INDICATES FEW OR NO CLOUDS BELOW 12,000 FEET WITH NO
SIGNIFICANT WEATHER AND/OR OBSTRUCTIONS TO VISIBILITY.

* THESE STATIONS ARE NOT UNDER NWS QUALITY CONTROL. THEY ALSO MAY NOT
  REPORT WEATHER SUCH AS PRECIPITATION OR FOG.

ILZ001-002-007-009-015-016-024-280200-
NORTHWEST ILLINOIS

CITY           SKY/WX    TMP DP  RH WIND       PRES   REMARKS
MOLINE         PTCLDY    74  58  57 NW17G25   29.92R
STERLING*      PTCLDY    73  57  56 NW15G23   29.89R
$$

ILZ003-004-008-010-011-017-018-280200-
NORTH CENTRAL ILLINOIS

CITY           SKY/WX    TMP DP  RH WIND       PRES   REMARKS
ROCKFORD       PTCLDY    73  56  54 NW14      29.87R
FREEPORT*      MOCLDY    71  59  66 NW8G21    29.91R
$$

ILZ005-006-012>014-019>023-280200-
NORTHEAST ILLINOIS

CITY           SKY/WX    TMP DP  RH WIND       PRES   REMARKS
CHICAGO-OHARE  PTCLDY    73  54  51 NW15      29.81R
CHICAGO-MIDWAY MOCLDY    76  56  49 NW25G31   29.81R
AURORA         CLOUDY    73  56  54 NW9       29.84R
LANSING*       MOCLDY    74  54  49 NW17G25   29.81R
WAUKEGAN       LGT RAIN  65  61  87 NW7       29.82R FOG
DUPAGE AIRPORT PTCLDY    71  58  63 NW10      29.84R
WHEELING       CLEAR     73  58  59 NW14G23   29.82R
NORTHERLY ISL    N/A     74  56  53 NW14        N/A
$$

LMZ740>746-280200-
SOUTHERN LAKE MICHIGAN

STATION/POSITION SKY/WX   TEMP    WIND        PRES    VSBY  WAVE
                          AIR SEA DIR/SP/G                  HT/PER
                          (F)     (DEG/KT/KT) (MB)    (MI)  (FT/S)
SOUTHERN BUOY              63 62  310/ 14/ 17 1008.1R         2/ 4
WAUKEGAN HARBOR            72     350/ 18/ 22   N/A
HARRISON CRIB              74     300/ 22/ 26   N/A
BURNHAM HARBOR             74     300/ 13/ 20   N/A
CALUMET HARBOR             75     300/  9/ 21 1008.0R
BURNS HARBOR               72     330/ 19/ 24 1009.1S
MICHIGAN CITY              70     300/ 12/ 15   N/A
MICHIGAN CITY 6N           69 69  350/ 17/ 23   N/A           4/ 4
ST. JOSEPH                 65 64  340/ 14/ 19   N/A           4/ 4
$$

ILZ025>027-034>036-040-047-049-050-058-095>099-280200-
WEST-CENTRAL ILLINOIS

CITY           SKY/WX    TMP DP  RH WIND       PRES   REMARKS
QUINCY         CLEAR     73  57  57 NW12      29.99R
GALESBURG*     PTCLDY    72  60  65 W10       29.94R
MACOMB*        CLEAR     71  59  66 NW9       29.98R
$$

ILZ028>032-037-038-041>044-048-051>054-059>061-280200-
CENTRAL ILLINOIS

CITY           SKY/WX    TMP DP  RH WIND       PRES   REMARKS
PONTIAC        CLEAR     73  57  56 NW12G21   29.87R
DECATUR        CLEAR     75  57  53 NW12G22   29.91R
PEORIA         CLEAR     75  57  53 NW10      29.91R
SPRINGFIELD    CLEAR     75  59  57 NW9       29.94R
TAYLORVILLE    NOT AVBL
$$

ILZ033-039-045-046-055>057-062-063-280200-
EAST-CENTRAL ILLINOIS

CITY           SKY/WX    TMP DP  RH WIND       PRES   REMARKS
CHAMPAIGN      CLEAR     71  60  68 NW12      29.89R
MATTOON        MOCLDY    74  58  57 NW18G25   29.89R
$$

ILZ079-100>102-280200-
SOUTHWEST ILLINOIS

CITY           SKY/WX    TMP DP  RH WIND       PRES   REMARKS
BELLEVILLE     CLEAR     82  60  47 W9G20     29.91R HX  82
CAHOKIA*       PTCLDY    85  57  38 NW18G28   29.92R HX  84
SPARTA*        CLEAR     81  55  41 NW10      29.92R HX  80
$$

ILZ064>066-069>071-074>076-080>082-084>086-088>090-092>094-280200-
SOUTH-CENTRAL ILLINOIS

CITY           SKY/WX    TMP DP  RH WIND       PRES   REMARKS
CARBONDALE     PTCLDY    84  55  36 NW10      29.89R HX  83
MT. VERNON     CLEAR     81  61  50 CALM      29.91R HX  81
SALEM*         CLEAR    N/A N/A N/A NW10G17   29.91R
$$

ILZ067-068-072-073-078-083-087-091-280200-
SOUTHEAST ILLINOIS

CITY           SKY/WX    TMP DP  RH WIND       PRES   REMARKS
LAWRENCEVILLE  CLEAR     79  61  53 NW14      29.86R HX  80
HARRISBURG*    CLEAR     82  61  49 NW7       29.89R HX  83
ROBINSON*      PTCLDY    78  63  58 NW12      29.87R HX  80
CARMI*         CLEAR     82  63  51 NW15G22   29.87R HX  83
$$

ABBREVIATIONS USED IN REMARKS
   TC - TEMPERATURE IN CELSIUS
  WCI - WIND CHILL INDEX
   HX - HEAT INDEX
  VSB - VISIBILITY
$$



USA.gov is the U.S. government's official web portal to all federal, state and local government web resources and services.